Regional Weather Roundup
Issued by NWS

Home | Current Version | Previous Version | Graphics & Text | Print | Product List | Glossary On
Versions: 1 2 3 4 5 6 7 8 9 10 11 12 13 14 15 16 17 18 19 20 21 22 23 24 25 26 27 28 29 30 31 32 33 34 35 36 37 38 39 40 41 42 43 44 45 46 47 48 49 50
000
ASUS43 KBIS 010210
RWRND

NORTH DAKOTA REGIONAL WEATHER ROUNDUP
NATIONAL WEATHER SERVICE BISMARCK ND
900 PM CDT FRI OCT 31 2014

NOTE: "FAIR" INDICATES FEW OR NO CLOUDS BELOW 12,000 FEET WITH NO
SIGNIFICANT WEATHER AND/OR OBSTRUCTIONS TO VISIBILITY.


NDZ001>003-009>011-017-010300-
NORTHWEST NORTH DAKOTA

CITY           SKY/WX    TMP DP  RH WIND       PRES   REMARKS
WILLISTON      MOCLDY    42  19  39 S17G25    29.94F
MINOT          PTCLDY    34  12  40 SE17      30.08F
MINOT AFB      PTCLDY    35  14  42 S23G29    30.07F
$$

NDZ018>021-031>035-040>046-010300-
SOUTHWEST NORTH DAKOTA

CITY           SKY/WX    TMP DP  RH WIND       PRES   REMARKS
BISMARCK       CLEAR     34  14  43 SE22G33   30.16F
DICKINSON      PTCLDY    36  14  40 SE25G36   29.96F
GARRISON         N/A     35  17  47 S16G24    30.08F
HETTINGER ARPT PTCLDY    36  14  40 SE21G28   30.01F
$$

NDZ004>008-012>016-024-026-027-054-010300-
NORTHEAST NORTH DAKOTA

CITY           SKY/WX    TMP DP  RH WIND       PRES   REMARKS
GRAND FORKS    MOCLDY    32  19  58 SE12      30.35F
GRND FRKS AFB  MOCLDY    32  20  59 S13       30.34F
DEVILS LAKE    PTCLDY    34  16  47 S20       30.22F
$$

NDZ022-023-025-028>030-036>039-047>053-010300-
SOUTHEAST NORTH DAKOTA

CITY           SKY/WX    TMP DP  RH WIND       PRES   REMARKS
FARGO          CLEAR     33  20  58 S13       30.38F
JAMESTOWN      PTCLDY    30  19  63 SE14      30.26F WCI  19
$$




USA.gov is the U.S. government's official web portal to all federal, state and local government web resources and services.